Location: Grange Rosano
(44.4500°N, 6.9667°E)
Time: 08:45:26
(UTC+00:00)

Helios 1B rocket - Pass Details

Date: 26 May 2022
Orbit: 569 x 578 km, 98.2° (Epoch: 01 July)

Event Time Altitude Azimuth Distance (km) Brightness Sun altitude
Rises 02:39:20 0° 15° (NNE) 2,784 7.1 -11.4°
Reaches altitude 10° 02:41:30 10° 17° (NNE) 1,881 6.1 -11.1°
Maximum altitude 02:45:33 73° 102° (ESE) 599 2.6 -10.6°
Drops below altitude 10° 02:49:36 10° 188° (S) 1,866 4.6 -10.1°
Enters shadow 02:50:03 - 189° (S) 2,055 4.8 -10.0°
